Regional Weather Roundup
Issued by NWS Jackson, KY

Home | Current Version | Previous Version | Text Only | Print | Product List | Glossary Off
Versions: 1 2 3 4 5 6 7 8 9 10 11 12 13 14 15 16 17 18 19 20 21 22 23 24 25 26 27 28 29 30 31 32 33 34 35 36 37 38 39 40 41 42 43 44 45 46 47 48 49 50

000
ASUS43 KJKL 270119
RWRJKL

EAST KENTUCKY HOURLY WEATHER ROUNDUP
NATIONAL WEATHER SERVICE JACKSON KY
800 PM EST MON JAN 26 2015

NOTE: "FAIR" INDICATES FEW OR NO CLOUDS BELOW 12,000 FEET WITH
NO SIGNIFICANT WEATHER AND/OR OBSTRUCTIONS TO VISIBILITY.

* THESE REPORTS ARE NOT UNDER NWS QUALITY CONTROL AND MAY NOT
  REPORT WEATHER SUCH AS PRECIPITATION AND FOG.

KYZ079-080-083-085-087-088-110-112-115-119-120-270200
...EASTERN KENTUCKY...

CITY           SKY/WX    TMP DP  RH WIND       PRES   REMARKS
JACKSON        CLOUDY    26  22  84 VRB3      29.92S
LONDON         CLOUDY    30  21  69 W5        29.94R WCI  25
SOMERSET*      CLOUDY    30  23  74 CALM      29.97S
MONTICELLO*    LGT SNOW  28  28 100 CALM      29.99R FOG
MIDDLESBORO*   CLOUDY    30  25  82 NW12      29.95S WCI  21
HARLAN APT*    CLOUDY    30  25  80 NW5       29.91S WCI  25
HAZARD APT*    CLOUDY    28  25  86 NW9       29.93R WCI  20
PIKEVILLE APT* CLOUDY    25  23  93 W7        29.90R WCI  17
BIG SANDY*     CLOUDY    27  24  89 W3        29.92S
MOREHEAD APT*  CLOUDY    27  21  80 SW5       29.95S WCI  21
ASHLAND*       CLOUDY   N/A N/A N/A N3        29.93R
$$

KYZ035-036-041-042-044-050-067-078-099-270200
...CENTRAL KENTUCKY...

CITY           SKY/WX    TMP DP  RH WIND       PRES   REMARKS
MT STERLING*   CLOUDY    28  23  80 W3        29.95S
FLEMING/MASON* PTCLDY    24  20  83 CALM      29.94S
DANVILLE*      CLOUDY    30  23  74 W3        29.95F
RICHMOND*      CLOUDY    28  23  80 CALM      29.94S
LEXINGTON      CLOUDY    28  21  75 CALM      29.94S
FRANKFORT      CLOUDY    29  21  72 CALM      29.93F
$$

KYZ091>093-OHZ055-061-077-WVZ005-015-034-035-042-270200
...SOUTHERN OHIO/WEST VIRGINIA...

CITY           SKY/WX    TMP DP  RH WIND       PRES   REMARKS
COVINGTON      CLOUDY    27  18  69 CALM      29.93R
COLUMBUS       MOCLDY    16   9  73 NW7       29.94R WCI   6
DAYTON         MOCLDY    14   9  80 CALM      29.94R
WILMINGTON     CLEAR     15   9  76 N5        29.92S WCI   8
HUNTINGTON     MOCLDY    26  19  74 W3        29.93S
CHARLESTON     FLURRIES  27  22  81 VRB5      29.90R WCI  22
PINEVILLE*     FLURRIES  28  27  94 MISG      29.90R
BECKLEY        FLURRIES  23  19  85 NW9       29.78R WCI  13
BLUEFIELD      FLURRIES  24  20  84 NW10G18   29.76R WCI  14
$$

VAZ002-007-008-TNZ017-027-036-066-071-270200
...SOUTHWEST VIRGINIA/EAST TENNESSEE...

CITY           SKY/WX    TMP DP  RH WIND       PRES   REMARKS
WISE*          CLOUDY    27  27 100 NW8       29.84R FOG     WCI  18
JONESVILLE*    CLOUDY    28  25  86 W3        29.94R
ABINGDON*      CLOUDY    30  25  82 NW9       29.84R WCI  22
BRISTOL        CLOUDY    30  25  81 W13       29.89R WCI  20
KNOXVILLE      CLOUDY    32  25  75 W6        29.96R WCI  26
OAK RIDGE      CLOUDY    33  25  72 W6        29.97R WCI  28
CROSSVILLE     CLOUDY    29  26  89 W5        29.91F FOG     WCI  24
NASHVILLE      CLOUDY    34  30  85 E5        29.97R WCI  30
$$

...KEY TO REMARKS...
VSB - VISIBILITY IN MILES
WCI - WIND CHILL INDEX
HX  - HEAT INDEX

$$


USA.gov is the U.S. government's official web portal to all federal, state and local government web resources and services.